TimeEDT,TemperatureF,Dew PointF,Humidity,Sea Level PressureIn,VisibilityMPH,Wind Direction,Wind SpeedMPH,Gust SpeedMPH,PrecipitationIn,Events,Conditions,WindDirDegrees,DateUTC
12:15 AM,65.5,63.5,93,30.16,5.0,Calm,Calm,-,N/A,,Clear,0,2013-06-20 04:15:00
12:35 AM,65.5,63.7,94,30.16,4.0,Calm,Calm,-,N/A,,Clear,0,2013-06-20 04:35:00
12:55 AM,64.8,63.1,94,30.16,3.0,Calm,Calm,-,N/A,,Clear,0,2013-06-20 04:55:00
1:15 AM,64.6,63.0,94,30.17,2.5,Calm,Calm,-,N/A,,Clear,0,2013-06-20 05:15:00
1:35 AM,63.9,62.2,94,30.17,3.0,Calm,Calm,-,N/A,,Clear,0,2013-06-20 05:35:00
1:55 AM,63.7,62.1,94,30.17,2.5,ENE,3.5,-,N/A,,Clear,60,2013-06-20 05:55:00
2:15 AM,63.5,61.9,94,30.16,4.0,East,3.5,-,N/A,,Clear,90,2013-06-20 06:15:00
2:35 AM,64.6,63.1,95,30.16,5.0,East,5.8,-,N/A,,Mostly Cloudy,100,2013-06-20 06:35:00
2:55 AM,64.9,63.5,95,30.17,4.0,East,5.8,-,N/A,,Overcast,90,2013-06-20 06:55:00
3:15 AM,64.9,63.1,94,30.18,3.0,East,6.9,-,N/A,,Overcast,90,2013-06-20 07:15:00
3:35 AM,64.9,63.5,95,30.18,3.0,ENE,4.6,-,N/A,,Overcast,60,2013-06-20 07:35:00
3:55 AM,64.8,63.0,94,30.19,4.0,ENE,6.9,-,N/A,,Overcast,60,2013-06-20 07:55:00
4:15 AM,64.4,62.6,94,30.19,5.0,NE,3.5,-,N/A,,Overcast,40,2013-06-20 08:15:00
4:35 AM,63.7,61.7,93,30.19,4.0,Calm,Calm,-,N/A,,Mostly Cloudy,0,2013-06-20 08:35:00
4:55 AM,63.3,61.7,94,30.19,3.0,Calm,Calm,-,N/A,,Scattered Clouds,0,2013-06-20 08:55:00
5:15 AM,62.6,61.0,94,30.19,2.5,Calm,Calm,-,N/A,,Clear,0,2013-06-20 09:15:00
5:35 AM,62.6,61.0,94,30.20,2.5,Calm,Calm,-,N/A,,Clear,0,2013-06-20 09:35:00
5:55 AM,62.4,61.0,95,30.21,1.5,Calm,Calm,-,N/A,,Mostly Cloudy,0,2013-06-20 09:55:00
6:15 AM,61.9,60.6,96,30.21,1.8,NE,3.5,-,N/A,,Scattered Clouds,50,2013-06-20 10:15:00
6:35 AM,61.9,60.4,95,30.22,1.8,Calm,Calm,-,N/A,,Mist,0,2013-06-20 10:35:00
6:55 AM,62.6,61.2,95,30.22,2.5,Calm,Calm,-,N/A,,Clear,0,2013-06-20 10:55:00
7:15 AM,62.8,61.3,95,30.23,2.0,ENE,3.5,-,N/A,,Clear,60,2013-06-20 11:15:00
7:35 AM,63.5,61.7,94,30.24,5.0,NE,4.6,-,N/A,,Scattered Clouds,50,2013-06-20 11:35:00
7:55 AM,64.2,61.5,91,30.24,7.0,NE,5.8,-,N/A,,Mostly Cloudy,50,2013-06-20 11:55:00
8:15 AM,65.3,61.5,88,30.25,10.0,NE,5.8,-,N/A,,Scattered Clouds,50,2013-06-20 12:15:00
8:35 AM,65.8,60.6,83,30.25,10.0,ENE,5.8,-,N/A,,Clear,60,2013-06-20 12:35:00
8:55 AM,67.3,59.2,75,30.26,10.0,ENE,4.6,-,N/A,,Clear,60,2013-06-20 12:55:00
9:15 AM,68.9,57.7,68,30.27,10.0,ENE,6.9,-,N/A,,Clear,70,2013-06-20 13:15:00
9:35 AM,70.0,57.4,64,30.27,10.0,ENE,5.8,-,N/A,,Clear,70,2013-06-20 13:35:00
9:55 AM,70.7,56.7,61,30.26,10.0,NE,6.9,-,N/A,,Clear,50,2013-06-20 13:55:00
10:15 AM,71.8,53.8,53,30.26,10.0,ENE,8.1,-,N/A,,Clear,70,2013-06-20 14:15:00
10:35 AM,72.7,54.5,53,30.26,10.0,East,5.8,-,N/A,,Clear,90,2013-06-20 14:35:00
10:55 AM,73.6,54.9,52,30.26,10.0,NE,4.6,-,N/A,,Clear,50,2013-06-20 14:55:00
11:15 AM,74.8,52.9,46,30.27,10.0,ENE,10.4,-,N/A,,Clear,70,2013-06-20 15:15:00
11:35 AM,75.2,53.2,46,30.27,10.0,East,4.6,-,N/A,,Clear,80,2013-06-20 15:35:00
11:55 AM,75.6,54.3,48,30.27,10.0,East,9.2,-,N/A,,Clear,80,2013-06-20 15:55:00
12:15 PM,76.1,54.7,47,30.27,10.0,ENE,8.1,-,N/A,,Clear,70,2013-06-20 16:15:00
12:35 PM,76.1,55.6,49,30.27,10.0,ENE,8.1,-,N/A,,Clear,60,2013-06-20 16:35:00
12:55 PM,76.1,55.2,48,30.27,10.0,North,5.8,-,N/A,,Clear,10,2013-06-20 16:55:00
1:15 PM,76.6,55.6,48,30.27,10.0,NNE,3.5,-,N/A,,Clear,30,2013-06-20 17:15:00
1:35 PM,77.0,56.1,48,30.26,10.0,NE,5.8,-,N/A,,Clear,40,2013-06-20 17:35:00
1:55 PM,77.2,55.8,47,30.26,10.0,East,8.1,-,N/A,,Clear,90,2013-06-20 17:55:00
2:15 PM,77.2,56.1,48,30.26,10.0,NE,5.8,-,N/A,,Clear,40,2013-06-20 18:15:00
2:35 PM,77.4,56.5,48,30.25,10.0,ESE,3.5,-,N/A,,Clear,120,2013-06-20 18:35:00
2:55 PM,78.3,56.7,47,30.25,10.0,Calm,Calm,-,N/A,,Clear,0,2013-06-20 18:55:00
3:15 PM,78.4,58.3,50,30.25,10.0,NNE,8.1,-,N/A,,Clear,20,2013-06-20 19:15:00
3:35 PM,78.6,58.1,49,30.24,10.0,ENE,8.1,-,N/A,,Scattered Clouds,60,2013-06-20 19:35:00
3:55 PM,78.4,56.5,47,30.24,10.0,ENE,6.9,-,N/A,,Scattered Clouds,70,2013-06-20 19:55:00
4:15 PM,79.0,57.9,48,30.24,10.0,NE,8.1,-,N/A,,Scattered Clouds,50,2013-06-20 20:15:00
4:35 PM,78.8,58.1,49,30.23,10.0,NNE,6.9,-,N/A,,Scattered Clouds,30,2013-06-20 20:35:00
4:55 PM,78.6,57.4,48,30.23,10.0,Calm,Calm,-,N/A,,Scattered Clouds,0,2013-06-20 20:55:00
5:15 PM,78.1,57.9,50,30.23,10.0,East,6.9,-,N/A,,Scattered Clouds,90,2013-06-20 21:15:00
5:35 PM,78.1,58.3,50,30.23,10.0,NE,3.5,-,N/A,,Scattered Clouds,40,2013-06-20 21:35:00
5:55 PM,78.1,58.1,50,30.22,10.0,East,5.8,-,N/A,,Clear,80,2013-06-20 21:55:00
6:15 PM,77.2,58.6,53,30.21,10.0,ENE,5.8,-,N/A,,Clear,60,2013-06-20 22:15:00
6:35 PM,76.8,60.1,56,30.22,10.0,East,3.5,-,N/A,,Clear,80,2013-06-20 22:35:00
6:55 PM,76.6,60.4,57,30.22,10.0,East,4.6,-,N/A,,Clear,80,2013-06-20 22:55:00
7:15 PM,75.7,60.6,59,30.22,10.0,East,5.8,-,N/A,,Clear,80,2013-06-20 23:15:00
7:35 PM,74.5,61.7,64,30.23,10.0,East,3.5,-,N/A,,Clear,80,2013-06-20 23:35:00
7:55 PM,73.4,63.0,70,30.23,10.0,Calm,Calm,-,N/A,,Clear,0,2013-06-20 23:55:00
8:15 PM,71.8,63.1,74,30.23,10.0,Calm,Calm,-,N/A,,Clear,0,2013-06-21 00:15:00
8:35 PM,71.1,61.0,70,30.24,10.0,East,3.5,-,N/A,,Clear,100,2013-06-21 00:35:00
8:55 PM,70.3,57.7,64,30.24,10.0,East,5.8,-,N/A,,Clear,100,2013-06-21 00:55:00
9:15 PM,69.6,56.8,64,30.24,10.0,East,3.5,-,N/A,,Clear,90,2013-06-21 01:15:00
9:35 PM,68.7,57.2,67,30.24,10.0,Calm,Calm,-,N/A,,Clear,0,2013-06-21 01:35:00
9:55 PM,68.0,57.4,69,30.25,10.0,Calm,Calm,-,N/A,,Clear,0,2013-06-21 01:55:00
10:15 PM,67.3,58.1,72,30.26,10.0,Calm,Calm,-,N/A,,Clear,0,2013-06-21 02:15:00
10:35 PM,66.2,57.2,73,30.27,10.0,ENE,3.5,-,N/A,,Clear,60,2013-06-21 02:35:00
10:55 PM,65.1,56.7,74,30.27,10.0,Calm,Calm,-,N/A,,Clear,0,2013-06-21 02:55:00
11:15 PM,64.4,52.7,66,30.27,10.0,ENE,3.5,-,N/A,,Clear,70,2013-06-21 03:15:00
11:35 PM,63.5,52.3,67,30.27,10.0,ENE,3.5,-,N/A,,Clear,70,2013-06-21 03:35:00
11:55 PM,63.5,51.3,64,30.27,10.0,Calm,Calm,-,N/A,,Clear,0,2013-06-21 03:55:00